| time (UTC) | temp F | wind direction | speed knots | gust knots | rain 1hr in | rain 24hr in | rain mn in | humidity % | barometer mb |
| 20260506121600 | 22 | 0.0 | 0.0 | 0.00 | 0.00 | 0.00 | 94 | 1014.7 | |
| 20260506120519 | 22 | 359 | 0.0 | 0.0 | 0.00 | 0.00 | 0.00 | 94 | 1014.5 |
| 20260506115520 | 23 | 36 | 0.0 | 0.9 | 0.00 | 0.00 | 0.00 | 95 | 1014.4 |
| 20260506114517 | 23 | 22 | 0.0 | 0.0 | 0.00 | 0.00 | 0.00 | 95 | 1014.3 |
| 20260506113517 | 23 | 13 | 0.0 | 0.9 | 0.00 | 0.00 | 0.00 | 95 | 1014.3 |
| 20260506112517 | 23 | 13 | 0.0 | 0.9 | 0.00 | 0.00 | 0.00 | 95 | 1014.2 |
| 20260506111520 | 23 | 0.0 | 0.0 | 0.00 | 0.00 | 0.00 | 95 | 1014.0 | |
| 20260506110520 | 23 | 0.0 | 0.0 | 0.00 | 0.00 | 0.00 | 95 | 1013.9 | |
| 20260506105517 | 23 | 337 | 0.0 | 0.0 | 0.00 | 0.00 | 0.00 | 95 | 1013.8 |
| 20260506104517 | 23 | 0.0 | 0.0 | 0.00 | 0.00 | 0.00 | 95 | 1013.8 | |
| 20260506103538 | 23 | 348 | 0.0 | 0.0 | 0.00 | 0.00 | 0.00 | 95 | 1013.8 |
| 20260506102518 | 24 | 0.0 | 0.0 | 0.00 | 0.00 | 0.00 | 95 | 1013.7 | |
| 20260506101517 | 24 | 0.0 | 0.0 | 0.00 | 0.00 | 0.00 | 95 | 1013.7 | |
| 20260506100518 | 24 | 356 | 0.0 | 0.0 | 0.00 | 0.00 | 0.00 | 95 | 1013.9 |
| 20260506095518 | 24 | 9 | 0.0 | 0.0 | 0.00 | 0.00 | 0.00 | 95 | 1014.0 |
| 20260506094518 | 24 | 0.0 | 0.0 | 0.00 | 0.00 | 0.00 | 95 | 1013.8 | |
| 20260506093538 | 24 | 0.0 | 0.0 | 0.00 | 0.00 | 0.00 | 95 | 1013.9 | |
| 20260506092518 | 24 | 319 | 0.0 | 0.0 | 0.00 | 0.00 | 0.00 | 95 | 1013.9 |
| 20260506091518 | 24 | 0.0 | 0.0 | 0.00 | 0.00 | 0.00 | 95 | 1013.9 | |
| 20260506090518 | 24 | 0.0 | 0.0 | 0.00 | 0.00 | 0.00 | 94 | 1013.8 | |
| 20260506085519 | 24 | 0.0 | 0.0 | 0.00 | 0.00 | 0.00 | 95 | 1014.0 | |
| 20260506084538 | 24 | 0.0 | 0.0 | 0.00 | 0.00 | 0.00 | 95 | 1014.0 | |
| 20260506083519 | 24 | 46 | 0.0 | 0.9 | 0.00 | 0.00 | 0.00 | 95 | 1014.0 |
| 20260506082519 | 24 | 10 | 0.0 | 0.0 | 0.00 | 0.02 | 0.00 | 95 | 1014.1 |
| 20260506081539 | 24 | 0.0 | 0.0 | 0.00 | 0.03 | 0.00 | 95 | 1014.1 | |
| 20260506080540 | 24 | 347 | 0.0 | 0.0 | 0.00 | 0.05 | 0.00 | 95 | 1014.3 |
| 20260506073519 | 24 | 0.0 | 0.0 | 0.00 | 0.06 | 0.00 | 95 | 1014.3 | |
| 20260506072519 | 24 | 0.0 | 0.0 | 0.00 | 0.08 | 0.00 | 95 | 1014.4 | |
| 20260506071520 | 25 | 0.0 | 0.0 | 0.00 | 0.10 | 0.00 | 95 | 1014.7 | |
| 20260506070537 | 25 | 0.0 | 0.0 | 0.00 | 0.10 | 0.00 | 95 | 1014.6 | |
| 20260506061517 | 25 | 0.0 | 0.0 | 0.00 | 0.10 | 0.00 | 96 | 1013.9 | |
| 20260506060537 | 25 | 208 | 0.0 | 0.0 | 0.00 | 0.10 | 0.00 | 95 | 1014.1 |
| 20260506050538 | 25 | 0.0 | 0.0 | 0.00 | 0.10 | 0.10 | 95 | 1013.7 | |
| 20260506044518 | 25 | 0.0 | 0.0 | 0.00 | 0.10 | 0.10 | 95 | 1013.6 | |
| 20260506043518 | 25 | 0.0 | 0.0 | 0.00 | 0.10 | 0.10 | 95 | 1013.6 | |
| 20260506042519 | 25 | 0.0 | 0.0 | 0.00 | 0.10 | 0.10 | 95 | 1013.6 | |
| 20260506041519 | 25 | 0.0 | 0.0 | 0.00 | 0.10 | 0.10 | 95 | 1013.5 | |
| 20260506040538 | 25 | 0.0 | 0.0 | 0.00 | 0.10 | 0.10 | 95 | 1013.4 | |
| 20260506035518 | 25 | 0.0 | 0.0 | 0.00 | 0.10 | 0.10 | 95 | 1013.3 | |
| 20260506034519 | 25 | 326 | 0.0 | 0.0 | 0.00 | 0.10 | 0.10 | 95 | 1013.2 |
| 20260506033519 | 25 | 0.0 | 0.0 | 0.00 | 0.10 | 0.10 | 95 | 1013.1 | |
| 20260506032519 | 25 | 0.0 | 0.0 | 0.00 | 0.10 | 0.10 | 95 | 1013.2 | |
| 20260506031536 | 25 | 344 | 0.0 | 0.0 | 0.00 | 0.10 | 0.10 | 95 | 1013.0 |
| 20260506030519 | 25 | 0.0 | 0.0 | 0.00 | 0.10 | 0.10 | 95 | 1012.9 | |
| 20260506025519 | 25 | 0.0 | 0.0 | 0.00 | 0.10 | 0.10 | 95 | 1012.8 | |
| 20260506024519 | 25 | 338 | 0.0 | 0.9 | 0.00 | 0.10 | 0.10 | 95 | 1012.7 |
| 20260506023519 | 25 | 0.0 | 0.0 | 0.00 | 0.10 | 0.10 | 95 | 1012.4 | |
| 20260506022520 | 25 | 284 | 0.0 | 0.9 | 0.00 | 0.10 | 0.10 | 95 | 1012.3 |
| 20260506021537 | 25 | 1 | 0.0 | 0.0 | 0.00 | 0.10 | 0.10 | 95 | 1012.0 |
| 20260506020518 | 25 | 16 | 0.0 | 0.9 | 0.00 | 0.10 | 0.10 | 95 | 1011.9 |
| 20260506015540 | 26 | 0.0 | 0.0 | 0.00 | 0.10 | 0.10 | 94 | 1011.8 | |
| 20260506014520 | 26 | 335 | 0.0 | 0.0 | 0.00 | 0.11 | 0.10 | 94 | 1011.7 |
| 20260506013517 | 26 | 0.0 | 0.0 | 0.00 | 0.13 | 0.10 | 94 | 1011.5 | |
| 20260506012517 | 26 | 354 | 0.0 | 0.0 | 0.00 | 0.14 | 0.10 | 94 | 1011.4 |
| 20260506011517 | 26 | 315 | 0.0 | 0.0 | 0.00 | 0.14 | 0.10 | 93 | 1011.2 |
| 20260506010517 | 26 | 360 | 0.0 | 0.0 | 0.00 | 0.17 | 0.10 | 94 | 1011.2 |
| 20260506005521 | 26 | 0.0 | 0.0 | 0.00 | 0.26 | 0.10 | 94 | 1011.2 | |
| 20260506004518 | 26 | 0.0 | 0.0 | 0.00 | 0.32 | 0.10 | 94 | 1011.3 | |
| 20260506003518 | 26 | 0.0 | 0.0 | 0.00 | 0.34 | 0.10 | 94 | 1011.3 | |
| 20260506002518 | 26 | 359 | 0.0 | 0.0 | 0.00 | 0.36 | 0.10 | 93 | 1011.4 |
| 20260506001518 | 26 | 306 | 0.0 | 0.0 | 0.00 | 0.39 | 0.10 | 93 | 1011.1 |
| 20260506000518 | 27 | 16 | 0.0 | 0.0 | 0.00 | 0.49 | 0.10 | 93 | 1010.9 |
| 20260505235518 | 27 | 294 | 0.0 | 0.9 | 0.00 | 0.51 | 0.10 | 93 | 1010.8 |
| 20260505234518 | 26 | 2 | 0.0 | 0.9 | 0.00 | 0.56 | 0.10 | 93 | 1010.8 |
| 20260505233518 | 26 | 0.0 | 0.0 | 0.00 | 0.63 | 0.10 | 93 | 1010.9 | |
| 20260505232519 | 26 | 0.0 | 0.0 | 0.00 | 0.63 | 0.10 | 93 | 1010.8 | |
| 20260505231519 | 26 | 0.0 | 0.0 | 0.00 | 0.63 | 0.10 | 93 | 1010.9 | |
| 20260505230539 | 26 | 0 | 0.0 | 0.9 | 0.00 | 0.63 | 0.10 | 93 | 1011.1 |
| 20260505225539 | 26 | 0.0 | 0.0 | 0.00 | 0.63 | 0.10 | 93 | 1011.1 | |
| 20260505224516 | 26 | 78 | 0.0 | 0.0 | 0.00 | 0.63 | 0.10 | 94 | 1011.0 |
| 20260505223539 | 26 | 116 | 0.0 | 0.0 | 0.00 | 0.63 | 0.10 | 94 | 1011.2 |
| 20260505222519 | 26 | 28 | 0.0 | 1.7 | 0.00 | 0.63 | 0.10 | 93 | 1011.2 |
| 20260505221519 | 27 | 14 | 0.0 | 0.9 | 0.00 | 0.63 | 0.10 | 93 | 1010.7 |
| 20260505220519 | 27 | 0.0 | 0.0 | 0.00 | 0.63 | 0.10 | 92 | 1010.6 | |
| 20260505215516 | 28 | 261 | 0.0 | 0.0 | 0.00 | 0.63 | 0.10 | 91 | 1010.7 |
| 20260505214516 | 29 | 331 | 0.0 | 0.9 | 0.00 | 0.63 | 0.10 | 90 | 1010.4 |
| 20260505213517 | 31 | 12 | 0.0 | 0.9 | 0.00 | 0.63 | 0.10 | 89 | 1010.3 |
| 20260505212520 | 32 | 77 | 0.0 | 0.9 | 0.00 | 0.63 | 0.10 | 89 | 1010.4 |
| 20260505211520 | 32 | 0.0 | 0.0 | 0.00 | 0.63 | 0.10 | 88 | 1010.2 | |
| 20260505210520 | 32 | 83 | 0.0 | 0.0 | 0.00 | 0.63 | 0.10 | 88 | 1010.4 |
| 20260505205557 | 32 | 0.0 | 0.0 | 0.00 | 0.63 | 0.10 | 89 | 1010.5 | |
| 20260505204537 | 32 | 0.0 | 0.0 | 0.00 | 0.63 | 0.10 | 89 | 1010.6 | |
| 20260505203537 | 32 | 4 | 0.0 | 0.0 | 0.00 | 0.64 | 0.10 | 89 | 1010.8 |
| 20260505202517 | 31 | 142 | 0.0 | 0.0 | 0.00 | 0.64 | 0.10 | 89 | 1010.9 |
| 20260505201601 | 31 | 0.0 | 0.0 | 0.00 | 0.64 | 0.10 | 91 | 1011.0 | |
| 20260505200521 | 31 | 290 | 0.0 | 0.0 | 0.00 | 0.64 | 0.10 | 91 | 1011.4 |
| 20260505195518 | 30 | 19 | 0.0 | 0.0 | 0.00 | 0.66 | 0.10 | 91 | 1011.5 |
| 20260505194538 | 31 | 263 | 0.0 | 0.9 | 0.00 | 0.68 | 0.10 | 91 | 1011.6 |
| 20260505193518 | 31 | 0.0 | 0.0 | 0.00 | 0.75 | 0.10 | 91 | 1011.7 | |
| 20260505192558 | 31 | 343 | 0.0 | 0.9 | 0.00 | 0.81 | 0.10 | 91 | 1011.8 |
| 20260505191518 | 31 | 114 | 0.0 | 0.9 | 0.00 | 0.83 | 0.10 | 91 | 1011.9 |
| 20260505190536 | 31 | 321 | 0.0 | 0.9 | 0.00 | 0.86 | 0.10 | 91 | 1012.1 |
| 20260505185518 | 32 | 0.0 | 0.0 | 0.00 | 0.86 | 0.10 | 90 | 1012.0 | |
| 20260505184518 | 32 | 78 | 0.0 | 1.7 | 0.00 | 0.86 | 0.10 | 88 | 1011.8 |
| 20260505183519 | 32 | 58 | 0.0 | 0.0 | 0.00 | 0.86 | 0.10 | 88 | 1011.8 |
| 20260505182519 | 33 | 212 | 0.0 | 1.7 | 0.00 | 0.86 | 0.10 | 88 | 1011.8 |
| 20260505181519 | 32 | 8 | 0.0 | 0.9 | 0.00 | 0.87 | 0.10 | 89 | 1011.8 |
| 20260505180517 | 31 | 53 | 0.0 | 0.0 | 0.00 | 0.87 | 0.10 | 90 | 1011.8 |
| 20260505175537 | 31 | 38 | 0.0 | 0.0 | 0.00 | 0.87 | 0.10 | 92 | 1011.9 |
| 20260505174616 | 31 | 258 | 0.0 | 0.9 | 0.00 | 0.87 | 0.10 | 92 | 1012.3 |
| 20260505173519 | 31 | 0.0 | 0.0 | 0.00 | 0.87 | 0.10 | 93 | 1012.3 | |
| 20260505172559 | 31 | 50 | 0.0 | 0.0 | 0.00 | 0.87 | 0.10 | 92 | 1012.2 |
| 20260505171517 | 31 | 0.0 | 0.0 | 0.00 | 0.87 | 0.10 | 92 | 1012.3 | |
| 20260505170518 | 31 | 35 | 0.0 | 0.0 | 0.00 | 0.87 | 0.10 | 92 | 1012.3 |
| 20260505165517 | 31 | 0.0 | 0.0 | 0.00 | 0.87 | 0.10 | 92 | 1012.7 | |
| 20260505164517 | 31 | 268 | 0.0 | 0.0 | 0.00 | 0.87 | 0.10 | 92 | 1013.0 |
| 20260505163520 | 32 | 348 | 0.0 | 0.9 | 0.00 | 0.87 | 0.10 | 91 | 1012.5 |
| 20260505162518 | 32 | 0.0 | 0.0 | 0.00 | 0.87 | 0.10 | 92 | 1012.5 | |
| 20260505161518 | 32 | 332 | 0.0 | 1.7 | 0.00 | 0.87 | 0.10 | 92 | 1012.5 |
| 20260505160517 | 32 | 112 | 0.0 | 0.0 | 0.00 | 0.87 | 0.10 | 93 | 1012.7 |
| 20260505152520 | 31 | 130 | 0.0 | 0.9 | 0.00 | 0.87 | 0.10 | 93 | 1012.8 |
| 20260505151518 | 31 | 52 | 0.0 | 0.9 | 0.00 | 0.87 | 0.10 | 94 | 1012.7 |
| 20260505150518 | 30 | 300 | 0.0 | 0.9 | 0.00 | 0.87 | 0.10 | 94 | 1012.7 |
| 20260505140519 | 30 | 0.0 | 0.0 | 0.00 | 0.87 | 0.10 | 95 | 1012.8 | |
| 20260505124519 | 29 | 37 | 0.0 | 0.0 | 0.00 | 0.87 | 0.10 | 96 | 1012.3 |
| 20260505123519 | 29 | 7 | 0.0 | 0.0 | 0.00 | 0.87 | 0.10 | 97 | 1012.2 |
| 20260505122520 | 30 | 316 | 0.0 | 0.0 | 0.00 | 0.87 | 0.10 | 97 | 1012.2 |